Regional Weather Roundup
Issued by NWS

Home | Current Version | Previous Version | Text Only | Print | Product List | Glossary Off
Versions: 1 2 3 4 5 6 7 8 9 10 11 12 13 14 15 16 17 18 19 20 21 22 23 24 25 26 27 28 29 30 31 32 33 34 35 36 37 38 39 40 41 42 43 44 45 46 47 48 49 50

100
ASUS43 KLMK 232002
RWRKY
KENTUCKY REGIONAL WEATHER ROUNDUP
NATIONAL WEATHER SERVICE LOUISVILLE KY
400 PM EDT TUE AUG 23 2016

NOTE "FAIR" INDICATES FEW OR NO CLOUDS BELOW 12,000 FEET
WITH NO SIGNIFICANT WEATHER AND/OR OBSTRUCTIONS TO VISIBILITY.

KYZ001>023-026-027-061>063-070>075-232100-
WESTERN AND SOUTH CENTRAL KENTUCKY

CITY           SKY/WX    TMP DP  RH WIND       PRES   REMARKS
PADUCAH        CLOUDY    82  69  64 SE6       30.18F
HENDERSON      CLOUDY    82  64  54 S5        30.19F
OWENSBORO      SUNNY     85  64  49 SW5       30.21F
HOPKINSVILLE   MOSUNNY   83  69  62 SW7       30.21F
BOWLING GREEN  MOSUNNY   85  60  42 VRB6      30.21F
GLASGOW        MOSUNNY   82  63  51 SW6       30.22F
$$

KYZ024-025-028>034-038-045-046-053-232100-
NORTH CENTRAL KENTUCKY

CITY           SKY/WX    TMP DP  RH WIND       PRES   REMARKS
LOUISVILLE/SDF PTSUNNY   83  57  41 VRB6      30.22F
LOUISVILLE/LOU CLOUDY    84  58  40 S8        30.22F
FORT KNOX      PTSUNNY   81  61  50 VRB7      30.21F
$$

KYZ035>037-039>044-047>052-055>060-089>105-232100-
NORTHEAST KENTUCKY

CITY           SKY/WX    TMP DP  RH WIND       PRES   REMARKS
LEXINGTON      MOSUNNY   82  57  42 S6        30.25F
COVINGTON      PTSUNNY   82  60  47 E7        30.23F
FRANKFORT      CLOUDY    83  57  41 SW6       30.23F
$$

KYZ054-064>069-076>088-106>120-232100-
SOUTHEAST KENTUCKY

CITY           SKY/WX    TMP DP  RH WIND       PRES   REMARKS
JACKSON        SUNNY     81  62  52 CALM      30.27F
LONDON         MOSUNNY   82  55  39 S3        30.26F
SOMERSET       MOSUNNY   81  57  44 SE6       30.25F
MIDDLESBORO    MOSUNNY   85  61  43 W5        30.26F
MONTICELLO     CLOUDY   N/A N/A N/A W12       30.25F
$$





USA.gov is the U.S. government's official web portal to all federal, state and local government web resources and services.